Location: Oshawa
(43.9000°N, 78.8670°W)
Time: 06:25:18
(UTC-04:00)

Amateur Radio Satellites - All Passes

Search period start: 25 June 2017 05:55
Search period end: 26 June 2017 05:55
Location: Oshawa, 43.9000°N, 78.8670°W

Satellite Date Start Highest point End Downlink Frequencies (MHz)
Time Altitude Azimuth
DOVE 4 25 Jun 06:12:33 06:16:49 29° 95° (E) 06:21:16 437.250
KKS-1 25 Jun 06:12:50 06:16:16 22° 266° (W) 06:19:43 437.445
ITAMSAT 1 25 Jun 06:20:39 06:24:17 19° 300° (WNW) 06:27:55 435.822/435.867
O/OREOS (USA 219) 25 Jun 06:27:59 06:29:43 12° 47° (NE) 06:31:28 437.305
XW-2F 25 Jun 06:29:48 06:31:56 15° 91° (E) 06:34:05 145.980 - 146.000
XW-2D 25 Jun 06:33:00 06:35:34 17° 93° (E) 06:38:07 145.860 - 145.880
LilacSat-2 25 Jun 06:40:13 06:43:12 22° 94° (E) 06:46:08 437.200
XW-2B 25 Jun 06:41:42 06:44:37 21° 94° (E) 06:47:31 145.730 - 145.750
RS-15 25 Jun 06:42:29 06:54:46 89° 54° (NE) 07:06:23 29.354- 29.394
STARS 25 Jun 06:44:07 06:47:37 23° 266° (W) 06:51:08 437.465
BEESAT 2 25 Jun 06:44:34 06:48:32 49° 51° (NE) 06:52:28 435.950
XW-2C 25 Jun 06:56:47 07:00:12 32° 97° (E) 07:03:34 145.795 - 145.815
AO-85 25 Jun 07:03:58 07:07:21 24° 245° (WSW) 07:10:54 145.980
STRAND 1 25 Jun 07:09:27 07:14:12 40° 68° (ENE) 07:19:00 437.568
AO-7 25 Jun 07:11:49 07:18:02 24° 310° (NW) 07:24:15 .
KAITUO 1B 25 Jun 07:12:20 07:15:49 37° 98° (E) 07:19:15 145.475/437.950
CUTE-I 25 Jun 07:18:36 07:23:49 48° 100° (E) 07:29:00 437.470
BEESAT 3 25 Jun 07:25:04 07:28:19 24° 246° (WSW) 07:31:30 437.485
NUDT-PHONESAT 25 Jun 07:48:44 07:52:27 75° 284° (WNW) 07:56:06 437.300
DOVE 4 25 Jun 07:50:06 07:54:29 35° 291° (WNW) 07:59:05 437.250
HO-68 25 Jun 07:56:02 08:02:26 34° 96° (E) 08:08:45 435.675
XW-2F 25 Jun 08:02:44 08:06:16 40° 288° (WNW) 08:09:46 145.980 - 146.000
O/OREOS (USA 219) 25 Jun 08:05:21 08:09:51 87° 67° (ENE) 08:14:19 437.305
XW-2D 25 Jun 08:06:26 08:09:52 33° 289° (WNW) 08:13:16 145.860 - 145.880
LilacSat-2 25 Jun 08:14:13 08:17:28 27° 291° (WNW) 08:20:41 437.200
XW-2B 25 Jun 08:15:34 08:18:49 28° 291° (WNW) 08:22:02 145.730 - 145.750
BEESAT 2 25 Jun 08:23:13 08:25:55 17° 249° (WSW) 08:28:36 435.950
YUBILEINY 25 Jun 08:24:21 08:31:40 28° 65° (ENE) 08:38:54 435.215
XW-2C 25 Jun 08:31:28 08:34:10 19° 294° (WNW) 08:36:53 145.795 - 145.815
Tancredo 1 25 Jun 08:31:49 08:34:24 26° 138° (SE) 08:37:00 437.200
M-CUBED/EXP-1 PRIME 25 Jun 08:34:50 08:36:31 13° 59° (ENE) 08:38:11 437.505
SEEDS 25 Jun 08:36:45 08:40:45 43° 99° (E) 08:44:43 437.485
FO-29 25 Jun 08:38:32 08:42:55 20° 54° (NE) 08:47:38 435.910
ISS 25 Jun 08:45:23 08:47:46 19° 135° (SE) 08:50:11 437.550
XW-2A 25 Jun 08:46:38 08:50:02 70° 100° (E) 08:53:25 145.665 - 145.685
KAITUO 1B 25 Jun 08:47:11 08:49:31 16° 295° (WNW) 08:51:51 145.475/437.950
STRAND 1 25 Jun 08:49:10 08:53:28 27° 265° (W) 08:57:50 437.568
CUTE 1.7 + AOD 2 25 Jun 08:53:09 08:57:22 77° 284° (WNW) 09:01:32 437.475
AO-73 25 Jun 08:56:09 08:59:12 18° 91° (E) 09:02:11 145.935
RS-15 25 Jun 08:56:32 09:05:34 26° 260° (W) 09:14:19 29.354- 29.394
CUBEBUG 2 25 Jun 08:59:07 09:03:50 63° 101° (E) 09:08:24 437.445
CUTE-I 25 Jun 08:59:15 09:03:33 25° 297° (WNW) 09:07:51 437.470
Oscar 11 25 Jun 09:23:24 09:27:02 26° 95° (E) 09:30:37 .
UNISAT 6 25 Jun 09:28:16 09:32:02 25° 66° (ENE) 09:35:51 437.425
AAUSAT CUBESAT 2 25 Jun 09:29:06 09:33:13 80° 102° (ESE) 09:37:20 437.432
ZACube-1 25 Jun 09:29:59 09:34:18 44° 98° (E) 09:38:29 437.345
UWE-3 25 Jun 09:33:52 09:38:31 87° 103° (ESE) 09:43:00 435.000/436.395/437.385
HO-68 25 Jun 09:43:28 09:50:22 51° 294° (WNW) 09:57:12 435.675
Tancredo 1 25 Jun 10:06:58 10:09:53 42° 336° (NNW) 10:12:48 437.200
M-CUBED/EXP-1 PRIME 25 Jun 10:07:38 10:10:42 36° 255° (WSW) 10:13:46 437.505
SEEDS 25 Jun 10:13:19 10:16:07 18° 295° (WNW) 10:18:54 437.485
YUBILEINY 25 Jun 10:20:30 10:29:17 71° 266° (W) 10:37:59 435.215
ISS 25 Jun 10:20:44 10:23:58 61° 331° (NNW) 10:27:15 437.550
FO-29 25 Jun 10:20:55 10:26:58 83° 256° (WSW) 10:33:56 435.910
PRISM 25 Jun 10:21:45 10:25:48 90° 332° (NNW) 10:29:52 437.425
TIGRISAT 25 Jun 10:21:47 10:26:22 78° 75° (ENE) 10:31:04 435.000
EO-88 25 Jun 10:30:35 10:33:32 23° 95° (E) 10:36:27 145.990 - 145.960
AO-73 25 Jun 10:31:25 10:35:41 45° 289° (WNW) 10:39:50 145.935
CUBEBUG 2 25 Jun 10:37:00 10:39:53 16° 298° (WNW) 10:42:44 437.445
EO-79 25 Jun 10:58:27 11:00:44 14° 62° (ENE) 11:03:02 145.935-145.965
Oscar 11 25 Jun 10:59:23 11:03:08 30° 292° (WNW) 11:06:52 .
DELFI C3 25 Jun 10:59:24 11:03:22 81° 104° (ESE) 11:07:18 145.870
UNISAT 6 25 Jun 11:04:18 11:08:33 37° 264° (W) 11:12:53 437.425
AIST 2D 25 Jun 11:04:28 11:07:28 26° 70° (ENE) 11:10:29 435.315
ZACube-1 25 Jun 11:07:02 11:10:14 20° 296° (WNW) 11:13:23 437.345
AAUSAT CUBESAT 2 25 Jun 11:07:21 11:08:03 10° 300° (WNW) 11:08:44 437.432
DUCHIFAT 1 25 Jun 11:12:28 11:15:06 16° 63° (ENE) 11:17:45 145.980
UWE-3 25 Jun 11:12:38 11:14:12 12° 301° (WNW) 11:15:46 435.000/436.395/437.385
NANOSAT C BR1 25 Jun 11:20:07 11:23:20 21° 65° (ENE) 11:26:34 145.865
PCSat 25 Jun 11:27:34 11:30:02 13° 103° (ESE) 11:32:31 145.827
HO-68 25 Jun 11:34:34 11:36:26 11° 315° (NW) 11:38:19 435.675
ESTCUBE 1 25 Jun 11:39:41 11:42:09 14° 90° (E) 11:44:36 437.505/2401.250
Tancredo 1 25 Jun 11:43:43 11:46:01 19° 355° (N) 11:48:18 437.200
POLYITAN 1 25 Jun 11:56:22 12:00:32 56° 73° (ENE) 12:04:45 437.675
ISS 25 Jun 11:58:15 12:00:56 22° 351° (N) 12:03:37 437.550
TIGRISAT 25 Jun 12:02:05 12:03:37 11° 272° (W) 12:05:11 435.000
EO-88 25 Jun 12:04:10 12:07:09 24° 291° (WNW) 12:10:07 145.990 - 145.960
QB50P2 25 Jun 12:07:05 12:11:20 80° 74° (ENE) 12:15:38 145.880/145.840
Oscar 19 25 Jun 12:08:39 12:09:59 11° 55° (NE) 12:11:18 437.125/150
FO-29 25 Jun 12:10:27 12:13:18 13° 278° (W) 12:16:19 435.910
YUBILEINY 25 Jun 12:20:25 12:24:21 14° 287° (WNW) 12:28:16 435.215
BUGSAT 1 25 Jun 12:22:43 12:26:12 27° 67° (ENE) 12:29:44 437.445
LO-87 25 Jun 12:27:12 12:30:53 85° 106° (ESE) 12:34:31 145.935 - 145.965
EO-79 25 Jun 12:31:48 12:36:00 60° 259° (W) 12:40:15 145.935-145.965
AIST 2D 25 Jun 12:37:59 12:40:40 20° 266° (W) 12:43:21 435.315
DUCHIFAT 1 25 Jun 12:46:14 12:50:21 51° 260° (W) 12:54:31 145.980
NANOSAT C BR1 25 Jun 12:54:52 12:58:48 37° 262° (W) 13:02:46 145.865
Gurwin Techsat 1B 25 Jun 12:57:02 13:00:45 20° 61° (ENE) 13:04:29 435.225
PCSat 25 Jun 13:07:12 13:12:37 89° 301° (WNW) 13:18:06 145.827
ESTCUBE 1 25 Jun 13:14:55 13:19:20 58° 287° (WNW) 13:23:43 437.505/2401.250
VELOX 1 25 Jun 13:17:40 13:21:47 36° 98° (E) 13:25:52 145.980
Tancredo 1 25 Jun 13:19:43 13:22:18 24° 15° (NNE) 13:24:53 437.200
POLYITAN 1 25 Jun 13:34:24 13:36:39 14° 270° (W) 13:38:56 437.675
ISS 25 Jun 13:35:23 13:38:10 24° 12° (NNE) 13:40:56 437.550
DX 1 25 Jun 13:38:39 13:41:55 20° 94° (E) 13:45:11 434.975-435.025
SPROUT 25 Jun 13:40:30 13:44:49 73° 102° (ESE) 13:49:06 437.525
Oscar 19 25 Jun 13:43:15 13:48:24 74° 74° (ENE) 13:53:32 437.125/150
50 SAT 25 Jun 13:49:53 13:53:04 36° 99° (E) 13:56:14 437.505
UKube-1 25 Jun 13:56:14 13:59:33 21° 94° (E) 14:02:49 .
BUGSAT 1 25 Jun 13:57:56 14:01:29 27° 265° (W) 14:05:06 437.445
SO-50 25 Jun 14:04:53 14:07:59 18° 111° (ESE) 14:11:05 436.795
ITAMSAT 1 25 Jun 14:22:37 14:25:47 16° 59° (ENE) 14:28:57 435.822/435.867
AO-7 25 Jun 14:26:58 14:34:11 35° 56° (NE) 14:41:27 .
Gurwin Techsat 1B 25 Jun 14:34:57 14:40:12 63° 258° (WSW) 14:45:30 435.225
PCSat 25 Jun 14:53:03 14:56:48 19° 321° (NW) 15:00:35 145.827
VELOX 1 25 Jun 14:54:31 14:58:01 23° 295° (WNW) 15:01:32 145.980
Tancredo 1 25 Jun 14:55:06 14:58:09 77° 215° (SW) 15:01:11 437.200
ITUPSAT 1 25 Jun 15:09:13 15:11:21 13° 89° (E) 15:13:30 437.325
ISS 25 Jun 15:11:44 15:15:01 77° 28° (NNE) 15:18:19 437.550
DX 1 25 Jun 15:14:10 15:18:15 39° 290° (WNW) 15:22:18 434.975-435.025
SPROUT 25 Jun 15:18:20 15:20:08 12° 299° (WNW) 15:21:55 437.525
BEESAT 25 Jun 15:18:36 15:21:37 17° 91° (E) 15:24:38 436.000
50 SAT 25 Jun 15:23:42 15:25:34 14° 295° (WNW) 15:27:26 437.505
Oscar 19 25 Jun 15:25:31 15:28:15 14° 271° (W) 15:30:59 437.125/150
UKube-1 25 Jun 15:31:41 15:35:41 37° 291° (WNW) 15:39:39 .
SO-50 25 Jun 15:43:33 15:48:02 56° 309° (NW) 15:52:30 436.795
ITAMSAT 1 25 Jun 15:59:25 16:04:37 75° 257° (WSW) 16:09:52 435.822/435.867
AO-7 25 Jun 16:18:18 16:26:30 62° 256° (WSW) 16:34:48 .
MOZHAYETS 4 25 Jun 16:26:46 16:31:15 52° 100° (E) 16:35:42
ITUPSAT 1 25 Jun 16:44:54 16:49:43 74° 286° (WNW) 16:54:28 437.325
ISS 25 Jun 16:49:11 16:51:08 15° 227° (SW) 16:53:05 437.550
BEESAT 25 Jun 16:55:03 16:59:45 57° 288° (WNW) 17:04:25 436.000
CUTE-I 25 Jun 17:05:11 17:07:49 14° 57° (ENE) 17:10:28 437.470
CUBESAT XI-V 25 Jun 17:07:46 17:11:40 27° 95° (E) 17:15:32 437.345
XW-2D 25 Jun 17:16:50 17:18:16 12° 63° (ENE) 17:19:41 145.860 - 145.880
DOVE 4 25 Jun 17:19:58 17:23:34 29° 68° (ENE) 17:27:16 437.250
LilacSat-2 25 Jun 17:24:09 17:26:21 15° 64° (ENE) 17:28:33 437.200
XW-2B 25 Jun 17:25:08 17:27:11 14° 64° (ENE) 17:29:14 145.730 - 145.750
SO-50 25 Jun 17:27:39 17:29:28 12° 329° (NNW) 17:31:18 436.795
XW-2C 25 Jun 17:39:40 17:42:32 20° 67° (ENE) 17:45:25 145.795 - 145.815
KAITUO 1B 25 Jun 17:53:50 17:56:48 22° 68° (ENE) 17:59:48 145.475/437.950
KKS-1 25 Jun 18:00:54 18:05:21 62° 101° (ESE) 18:09:48 437.445
MOZHAYETS 4 25 Jun 18:04:54 18:08:01 18° 297° (WNW) 18:11:06
AO-7 25 Jun 18:19:07 18:20:57 11° 276° (W) 18:22:46 .
HO-68 25 Jun 18:26:31 18:32:34 30° 59° (ENE) 18:38:38 435.675
NUDT-PHONESAT 25 Jun 18:28:45 18:32:26 56° 74° (ENE) 18:36:09 437.300
STARS 25 Jun 18:30:45 18:35:08 55° 100° (E) 18:39:29 437.465
CUTE-I 25 Jun 18:41:44 18:47:04 88° 74° (ENE) 18:52:28 437.470
XW-2F 25 Jun 18:44:08 18:47:57 73° 257° (WSW) 18:51:47 145.980 - 146.000
CUBESAT XI-V 25 Jun 18:44:57 18:49:03 32° 291° (WNW) 18:53:08 437.345
XW-2D 25 Jun 18:48:09 18:51:57 60° 260° (W) 18:55:45 145.860 - 145.880
LilacSat-2 25 Jun 18:56:32 19:00:15 46° 261° (W) 19:04:00 437.200
XW-2B 25 Jun 18:57:15 19:00:58 48° 260° (W) 19:04:43 145.730 - 145.750
DOVE 4 25 Jun 18:57:49 19:01:16 25° 266° (W) 19:04:49 437.250
UWE-3 25 Jun 18:59:38 19:00:20 10° 58° (ENE) 19:01:01 435.000/436.395/437.385
XW-2C 25 Jun 19:13:06 19:16:32 31° 263° (W) 19:19:59 145.795 - 145.815
XW-2A 25 Jun 19:19:11 19:22:09 27° 70° (ENE) 19:25:08 145.665 - 145.685
STRAND 1 25 Jun 19:20:37 19:22:24 12° 88° (E) 19:24:11 437.568
KAITUO 1B 25 Jun 19:27:26 19:30:41 27° 264° (W) 19:33:57 145.475/437.950
SEEDS 25 Jun 19:29:30 19:33:19 35° 71° (ENE) 19:37:10 437.485
KKS-1 25 Jun 19:38:49 19:41:25 15° 299° (WNW) 19:43:59 437.445
CUTE 1.7 + AOD 2 25 Jun 19:46:32 19:50:48 87° 76° (ENE) 19:55:04 437.475
AO-73 25 Jun 19:52:50 19:55:57 18° 64° (ENE) 19:59:04 145.935
CUBEBUG 2 25 Jun 19:57:50 20:02:21 60° 73° (ENE) 20:07:01 437.445
NUDT-PHONESAT 25 Jun 20:05:45 20:06:41 11° 270° (W) 20:07:36 437.300
STARS 25 Jun 20:08:14 20:11:03 17° 298° (WNW) 20:13:50 437.465
PCSat 25 Jun 20:11:11 20:15:08 20° 40° (NE) 20:19:03 145.827
HO-68 25 Jun 20:12:47 20:19:52 60° 258° (WSW) 20:27:00 435.675
Oscar 11 25 Jun 20:19:28 20:22:59 25° 67° (ENE) 20:26:31 .
AAUSAT CUBESAT 2 25 Jun 20:20:02 20:24:05 60° 74° (ENE) 20:28:10 437.432
CUTE-I 25 Jun 20:25:48 20:27:50 12° 272° (W) 20:29:53 437.470
ZACube-1 25 Jun 20:26:28 20:30:45 42° 71° (ENE) 20:35:05 437.345
UWE-3 25 Jun 20:31:21 20:35:56 81° 75° (ENE) 20:40:38 435.000/436.395/437.385
XW-2A 25 Jun 20:52:31 20:54:55 18° 267° (W) 20:57:20 145.665 - 145.685
STRAND 1 25 Jun 20:57:04 21:02:16 88° 286° (WNW) 21:07:25 437.568
SEEDS 25 Jun 21:05:56 21:09:06 21° 267° (W) 21:12:17 437.485
RS-15 25 Jun 21:06:05 21:17:35 53° 111° (ESE) 21:29:19 29.354- 29.394
EO-88 25 Jun 21:10:40 21:12:33 14° 64° (ENE) 21:14:26 145.990 - 145.960
NO-84 25 Jun 21:12:27 21:14:13 13° 122° (ESE) 21:16:02 435.350 FM
BEESAT 3 25 Jun 21:15:05 21:18:45 36° 117° (ESE) 21:22:27 437.485
AO-85 25 Jun 21:18:59 21:23:01 72° 123° (ESE) 21:26:58 145.980
AO-73 25 Jun 21:27:20 21:31:46 52° 261° (W) 21:36:15 145.935
YUBILEINY 25 Jun 21:27:57 21:35:07 29° 82° (E) 21:42:18 435.215
FO-29 25 Jun 21:29:44 21:34:40 18° 85° (E) 21:39:33 435.910
CUBEBUG 2 25 Jun 21:36:41 21:39:22 15° 271° (W) 21:42:07 437.445
DELFI C3 25 Jun 21:45:44 21:49:32 52° 73° (ENE) 21:53:21 145.870
PCSat 25 Jun 21:53:46 21:59:14 85° 241° (WSW) 22:04:39 145.827
Oscar 11 25 Jun 21:55:03 21:58:58 33° 263° (W) 22:02:55 .
AAUSAT CUBESAT 2 25 Jun 21:58:19 21:59:56 12° 271° (W) 22:01:32 437.432
ZACube-1 25 Jun 22:03:44 22:07:11 21° 268° (W) 22:10:41 437.345
PRISM 25 Jun 22:03:58 22:05:00 11° 90° (E) 22:06:01 437.425
UWE-3 25 Jun 22:11:41 22:12:59 11° 273° (W) 22:14:17 435.000/436.395/437.385
TIGRISAT 25 Jun 22:13:18 22:16:04 15° 90° (E) 22:18:48 435.000
BEESAT 2 25 Jun 22:14:05 22:17:58 55° 120° (ESE) 22:21:56 435.950
O/OREOS (USA 219) 25 Jun 22:18:41 22:23:13 80° 112° (ESE) 22:27:46 437.305
SO-50 25 Jun 22:33:22 22:37:16 28° 44° (NE) 22:41:10 436.795
STRAND 1 25 Jun 22:38:20 22:40:40 13° 303° (WNW) 22:42:59 437.568
ESTCUBE 1 25 Jun 22:40:33 22:43:26 17° 63° (ENE) 22:46:19 437.505/2401.250
EO-88 25 Jun 22:42:19 22:45:51 45° 261° (W) 22:49:24 145.990 - 145.960
NO-84 25 Jun 22:47:10 22:51:07 87° 140° (SE) 22:55:22 435.350 FM
BEESAT 3 25 Jun 22:53:03 22:56:25 25° 316° (NW) 22:59:48 437.485
UNISAT 6 25 Jun 22:54:13 22:58:41 43° 98° (E) 23:03:01 437.425
AO-85 25 Jun 23:01:26 23:03:51 15° 321° (NW) 23:06:15 145.980
LO-87 25 Jun 23:04:25 23:07:44 38° 72° (ENE) 23:11:06 145.935 - 145.965
FO-29 25 Jun 23:12:47 23:20:40 83° 103° (ESE) 23:28:28 435.910
M-CUBED/EXP-1 PRIME 25 Jun 23:17:29 23:21:10 79° 289° (WNW) 23:25:10 437.505
RS-15 25 Jun 23:18:07 23:30:07 57° 316° (NW) 23:42:18 29.354- 29.394
YUBILEINY 25 Jun 23:22:30 23:31:13 65° 282° (WNW) 23:40:02 435.215
DELFI C3 25 Jun 23:22:56 23:24:37 12° 270° (W) 23:26:18 145.870
PRISM 25 Jun 23:36:37 23:40:42 67° 286° (WNW) 23:44:47 437.425
PCSat 25 Jun 23:39:50 23:41:44 12° 258° (WSW) 23:43:40 145.827
TIGRISAT 25 Jun 23:48:32 23:53:08 58° 287° (WNW) 23:57:37 435.000
QB50P2 25 Jun 23:52:35 23:54:10 12° 89° (E) 23:55:47 145.880/145.840
BEESAT 2 25 Jun 23:53:06 23:56:02 19° 319° (NW) 23:59:01 435.950
O/OREOS (USA 219) 26 Jun 00:00:51 00:03:14 14° 311° (NW) 00:05:36 437.305
AIST 2D 26 Jun 00:00:58 00:03:56 25° 95° (E) 00:06:52 435.315
SO-50 26 Jun 00:13:35 00:17:51 42° 242° (WSW) 00:22:09 436.795
ESTCUBE 1 26 Jun 00:15:24 00:19:48 54° 260° (W) 00:24:14 437.505/2401.250
EO-79 26 Jun 00:15:42 00:18:51 20° 93° (E) 00:21:57 145.935-145.965
VELOX 1 26 Jun 00:16:02 00:20:04 38° 70° (ENE) 00:24:09 145.980
50 SAT 26 Jun 00:23:42 00:25:58 17° 66° (ENE) 00:28:15 437.505
NO-84 26 Jun 00:25:39 00:29:11 26° 341° (NNW) 00:32:51 435.350 FM
DUCHIFAT 1 26 Jun 00:29:12 00:32:33 22° 94° (E) 00:35:51 145.980
UNISAT 6 26 Jun 00:31:31 00:35:05 22° 296° (WNW) 00:38:35 437.425
SPROUT 26 Jun 00:34:42 00:38:54 64° 74° (ENE) 00:43:10 437.525
DX 1 26 Jun 00:35:33 00:38:51 22° 65° (ENE) 00:42:10 434.975-435.025
NANOSAT C BR1 26 Jun 00:37:34 00:41:21 30° 96° (E) 00:45:05 145.865
LO-87 26 Jun 00:39:30 00:41:21 14° 269° (W) 00:43:14 145.935 - 145.965
UKube-1 26 Jun 00:52:02 00:55:21 22° 65° (ENE) 00:58:40 .
FO-29 26 Jun 00:58:51 01:04:49 25° 303° (WNW) 01:10:50 435.910
POLYITAN 1 26 Jun 01:15:14 01:19:34 87° 108° (ESE) 01:23:49 437.675
YUBILEINY 26 Jun 01:25:41 01:30:05 14° 306° (NW) 01:34:30 435.215
QB50P2 26 Jun 01:26:09 01:30:24 66° 286° (WNW) 01:34:38 145.880/145.840
AIST 2D 26 Jun 01:34:23 01:37:00 20° 292° (WNW) 01:39:36 435.315
RS-15 26 Jun 01:35:47 01:46:07 29° 347° (NNW) 01:56:22 29.354- 29.394
BUGSAT 1 26 Jun 01:37:32 01:41:31 37° 98° (E) 01:45:26 437.445
EO-79 26 Jun 01:50:45 01:54:45 39° 290° (WNW) 01:58:42 145.935-145.965
VELOX 1 26 Jun 01:53:19 01:56:39 21° 266° (W) 02:00:00 145.980
Oscar 19 26 Jun 01:54:04 01:58:05 23° 93° (E) 02:02:04 437.125/150
50 SAT 26 Jun 01:55:37 01:58:34 28° 263° (W) 02:01:32 437.505
DUCHIFAT 1 26 Jun 02:04:25 02:08:17 34° 291° (WNW) 02:12:07 145.980
NO-84 26 Jun 02:04:52 02:07:55 19° 2° (N) 02:11:02 435.350 FM
DX 1 26 Jun 02:10:47 02:14:48 37° 262° (W) 02:18:51 434.975-435.025
NANOSAT C BR1 26 Jun 02:13:24 02:16:57 26° 293° (WNW) 02:20:27 145.865
SPROUT 26 Jun 02:13:30 02:15:15 12° 271° (W) 02:16:59 437.525
ITUPSAT 1 26 Jun 02:16:44 02:20:06 19° 62° (ENE) 02:23:31 437.325
BEESAT 26 Jun 02:26:00 02:29:46 24° 64° (ENE) 02:33:33 436.000
UKube-1 26 Jun 02:27:11 02:31:09 36° 262° (W) 02:35:10 .
Gurwin Techsat 1B 26 Jun 02:49:42 02:54:51 46° 99° (E) 02:59:56 435.225
POLYITAN 1 26 Jun 02:53:51 02:54:38 10° 301° (WNW) 02:55:24 437.675
BUGSAT 1 26 Jun 03:13:23 03:16:38 22° 295° (WNW) 03:19:52 437.445
MOZHAYETS 4 26 Jun 03:29:31 03:34:05 58° 73° (ENE) 03:38:38
Oscar 19 26 Jun 03:32:43 03:37:37 46° 290° (WNW) 03:42:29 437.125/150
NO-84 26 Jun 03:42:44 03:46:37 30° 23° (NNE) 03:50:29 435.350 FM
ITUPSAT 1 26 Jun 03:52:50 03:57:32 54° 260° (W) 04:02:16 437.325
RS-15 26 Jun 03:52:50 04:03:38 33° 22° (NNE) 04:14:03 29.354- 29.394
BEESAT 26 Jun 04:02:45 04:07:17 42° 261° (W) 04:11:52 436.000
AO-85 26 Jun 04:09:15 04:11:27 14° 37° (NE) 04:13:41 145.980
ITAMSAT 1 26 Jun 04:11:04 04:15:50 34° 97° (E) 04:20:34 435.822/435.867
CUBESAT XI-V 26 Jun 04:12:12 04:16:16 31° 68° (ENE) 04:20:21 437.345
AO-7 26 Jun 04:18:16 04:26:10 43° 99° (E) 04:33:59 .
Gurwin Techsat 1B 26 Jun 04:30:13 04:34:30 26° 297° (WNW) 04:38:48 435.225
KKS-1 26 Jun 04:59:55 05:04:18 68° 74° (ENE) 05:08:44 437.445
MOZHAYETS 4 26 Jun 05:08:51 05:11:36 15° 270° (W) 05:14:21
NO-84 26 Jun 05:20:11 05:24:34 71° 222° (SW) 05:28:49 435.350 FM
STARS 26 Jun 05:28:18 05:32:36 57° 73° (ENE) 05:36:56 437.465
BEESAT 3 26 Jun 05:30:22 05:34:05 35° 48° (NE) 05:37:45 437.485
